This is the latest recevied weather packets stored in our database for station/object OM8AKX-4. If no packets are shown the sender has not sent any weather packets the latest 10 day(s).
| Time | Temp. | Humidity | Pressure | Rain* | Wind** | Luminosity | Snow |
|---|---|---|---|---|---|---|---|
| 1777612317 | 0° C | 43% | 883.4 hPa | - | - | - | - |
| 1777611416 | 0.56° C | 41% | 883.4 hPa | - | - | - | - |
| 1777610516 | 1.67° C | 40% | 883.2 hPa | - | - | - | - |
| 1777609616 | 0.56° C | 40% | 883.2 hPa | - | - | - | - |
| 1777608716 | 2.22° C | 38% | 883.1 hPa | - | - | - | - |
| 1777607816 | 0.56° C | 40% | 883.1 hPa | - | - | - | - |
| 1777606916 | -0.56° C | 44% | 883.1 hPa | - | - | - | - |
| 1777606016 | -1.67° C | 46% | 883 hPa | - | - | - | - |
| 1777605116 | -1.67° C | 46% | 883.2 hPa | - | - | - | - |
| 1777604216 | -1.67° C | 46% | 883.2 hPa | - | - | - | - |
| 1777603316 | -1.67° C | 47% | 883.3 hPa | - | - | - | - |
| 1777602416 | -2.22° C | 47% | 883.2 hPa | - | - | - | - |
| 1777601516 | -2.22° C | 47% | 883.2 hPa | - | - | - | - |
| 1777583515 | -1.11° C | 54% | 883.5 hPa | - | - | - | - |
| 1777579915 | -0.56° C | 55% | 883.6 hPa | - | - | - | - |
| 1777579015 | -0.56° C | 55% | 883.5 hPa | - | - | - | - |
| 1777570017 | 0.56° C | 51% | 882.8 hPa | - | - | - | - |
| 1777560116 | 2.22° C | 44% | 882.9 hPa | - | - | - | - |
| 1777559215 | 2.22° C | 44% | 883 hPa | - | - | - | - |
| 1777557415 | 1.67° C | 45% | 883 hPa | - | - | - | - |
| 1777556515 | 1.67° C | 47% | 883 hPa | - | - | - | - |
| 1777554715 | 1.67° C | 48% | 883.3 hPa | - | - | - | - |
| 1777553815 | 1.11° C | 49% | 883.3 hPa | - | - | - | - |
| 1777552015 | 1.11° C | 50% | 883.5 hPa | - | - | - | - |
| 1777551115 | 0.56° C | 51% | 883.6 hPa | - | - | - | - |
* Rain since midnight (hover to see other rain measurements)
** Current wind speed in m/s (hover to see current wind gust speed)